Regional Weather Roundup
Issued by NWS

Home | Current Version | Previous Version | Graphics & Text | Print | Product List | Glossary On
Versions: 1 2 3 4 5 6 7 8 9 10 11 12 13 14 15 16 17 18 19 20 21 22 23 24 25 26 27 28 29 30 31 32 33 34 35 36 37 38 39 40 41 42 43 44 45 46 47 48 49 50
733
ASUS43 KFSD 080502
RWRSD

WEATHER ROUNDUP FOR SOUTH DAKOTA
NATIONAL WEATHER SERVICE SIOUX FALLS SD
1100 PM CST SUN FEB 07 2016

NOTE: "FAIR" INDICATES FEW OR NO CLOUDS BELOW 12,000 FEET WITH NO
SIGNIFICANT WEATHER AND/OR OBSTRUCTIONS TO VISIBILITY.


SDZ001>005-009-010-012>017-080600-
NORTHWEST AND NORTH CENTRAL SOUTH DAKOTA

CITY           SKY/WX    TMP DP  RH WIND       PRES   REMARKS
BUFFALO          N/A     28  14  55 NW28G36   30.22S WCI  13
FAITH            N/A     30  14  51 NW31G40   30.21R WCI  15
MOBRIDGE       MOCLDY    32  19  58 N21G32    30.11R WCI  20
$$

SDZ012>016-024>037-041>051-057-063-072>074-080600-
SOUTHWEST AND SOUTH CENTRAL SOUTH DAKOTA

CITY           SKY/WX    TMP DP  RH WIND       PRES   REMARKS
RAPID CTY ARPT CLEAR     32   9  38 NW32G45   30.28R WCI  17
PIERRE         CLOUDY    34  17  50 NW30G39   30.15R WCI  20
CUSTER         CLEAR     23   2  40 NW25G41   30.23F WCI   7
ELLSWORTH AFB  CLEAR     31   9  38 NW31G43   30.28R WCI  16
PHILIP         CLEAR     31  17  56 NW23G32   30.25R WCI  18
PINE RIDGE     CLEAR     26  10  50 NW12      30.30R WCI  16
WINNER         MOCLDY    32  18  56 NW20      30.15S WCI  20
$$

SDZ004>011-016>023-039-040-080600-
NORTHEAST SOUTH DAKOTA

CITY           SKY/WX    TMP DP  RH WIND       PRES   REMARKS
ABERDEEN       CLOUDY    28  19  69 N18G26    30.06R WCI  15
WATERTOWN      LGT SNOW  20  13  74 N25G37    29.94S WCI   2
BROOKINGS      FLURRIES  20  15  81 N24G32    29.93R WCI   3
SISSETON         N/A     18  15  88 N28G35    29.98R WCI  -1
$$

SDZ017-020-022-023-036>040-048>070-080600-
SOUTHEAST SOUTH DAKOTA

CITY           SKY/WX    TMP DP  RH WIND       PRES   REMARKS
SIOUX FALLS    CLOUDY    24  18  77 NW28G44   29.96S BLWGSNOWWCI   7
HURON          CLEAR     27  18  69 NW26G37   30.04R WCI  12
MITCHELL       CLOUDY    31  22  69 NW26G37   30.06R WCI  17
YANKTON        CLOUDY    30  21  69 NW25G35   30.03S WCI  16
$$

ABBREVIATIONS USED IN REMARKS
   TC - TEMPERATURE IN CELSIUS
  WCI - WIND CHILL INDEX
   HX - HEAT INDEX
  VSB - VISIBILITY





USA.gov is the U.S. government's official web portal to all federal, state and local government web resources and services.